RH
19 27 31 34 60 69 70 79 70 69 78 76 82 68 50 72 83 53 41 38 49 59 70 89 90 72 71 83 84 86 97 98 99 99 92 91 94 97 97 94 100 99 99 100
15 19 25 28 36 44 52 62 60 59 60 55 44 38 33 30 30 33 49 58 73 78 87 70 75 78 85 89 91 88 81 83 90 83 70 63 68 66 74 84 86 90 98 95
6 10 17 24 30 35 55 54 42 46 46 38 33 32 28 32 45 54 49 51 75 83 73 68 78 89 92 90 79 72 72 71 63 58 43 46 36 42 36 40 45 49 48 62
5 6 8 11 17 24 33 36 38 37 40 34 34 37 38 41 45 56 66 64 66 70 70 72 78 68 57 51 53 50 48 46 43 38 36 31 20 16 18 25 32 27 28 31
9 5 5 6 8 10 14 18 20 21 23 30 32 35 36 34 30 34 41 49 55 56 50 52 50 45 37 34 34 31 28 25 26 31 30 30 26 24 20 22 18 14 16 16
11 10 7 5 5 7 7 10 13 15 16 17 17 18 16 14 14 14 16 19 21 17 19 22 25 22 21 20 23 23 18 13 10 9 9 9 10 10 9 9 9 7 6 6
13 13 10 9 8 7 6 7 8 10 10 10 11 11 11 12 13 14 14 14 14 15 16 15 13 12 11 11 10 10 9 9 9 7 7 6 6 6 6 7 8 9 9 11
13 14 14 12 10 10 9 8 7 7 8 8 9 10 10 10 12 13 14 12 11 9 9 8 8 7 7 7 7 8 7 6 7 7 8 8 8 10 11 14 16 20 23 24
11 13 14 15 14 13 10 8 11 11 10 8 8 8 8 9 9 9 9 8 8 8 7 7 7 6 6 7 7 7 8 9 11 10 14 16 20 20 19 18 21 23 22 20
7 12 14 15 17 18 18 17 14 16 16 16 14 12 10 10 10 10 9 10 11 12 13 14 15 16 17 18 20 21 21 21 22 22 19 18 21 19 18 17 17 14 13 14
6 8 12 14 16 19 20 21 21 21 22 22 23 23 22 22 21 19 19 17 17 19 20 21 24 23 22 23 22 22 21 21 20 20 20 21 16 16 14 14 13 14 14 14
6 6 8 13 16 18 22 24 21 23 24 25 26 26 28 26 26 25 26 26 26 26 26 28 28 28 28 25 23 21 20 16 15 16 18 17 18 18 18 18 18 18 18 18
3 6 6 8 13 18 21 23 25 26 26 27 28 31 31 33 34 34 30 26 28 28 28 29 30 30 31 32 30 27 23 19 16 16 16 14 14 16 16 16 16 17 17 18
10 4 6 6 8 13 17 20 20 21 24 28 31 32 33 34 37 37 37 36 35 34 34 36 38 38 38 40 38 34 28 25 23 21 20 19 20 20 21 22 23 25 26 25
6 13 7 5 6 6 11 16 18 18 17 20 24 29 29 32 34 35 35 36 36 36 35 36 36 36 36 38 38 37 37 34 32 32 31 30 29 28 29 30 32 33 33 34
10 6 14 15 6 5 5 7 10 15 17 16 16 15 17 21 23 24 23 24 24 26 28 31 34 33 34 37 38 32 35 39 39 41 42 45 46 45 44 42 42 44 46 48
22 8 7 8 17 14 10 8 6 10 12 14 16 15 13 13 13 12 11 12 12 11 10 9 15 17 19 22 30 29 33 38 42 43 45 50 52 58 61 66 68 70 72 74
51 23 10 9 7 11 14 15 15 12 10 11 11 12 13 12 12 11 9 8 8 7 7 6 6 6 7 8 9 10 13 18 29 39 42 45 51 57 64 69 74 83 88 93
68 50 26 13 11 8 7 6 7 8 10 10 18 18 14 11 11 12 11 10 9 8 7 7 8 12 12 14 18 19 23 27 24 16 17 31 42 46 55 65 67 71 85 91
63 70 52 30 16 12 10 9 8 7 6 6 7 13 20 18 19 18 15 15 16 15 16 17 19 21 21 19 19 19 21 28 35 49 46 26 32 41 44 45 46 51 58 72
64 67 74 57 37 23 14 11 12 10 9 7 7 6 6 13 14 16 16 17 16 16 18 19 16 20 18 16 13 15 19 23 33 43 62 65 51 47 40 39 43 58 74 81
68 68 75 75 64 48 36 22 14 12 13 12 7 6 6 6 6 7 8 9 8 9 11 11 10 10 9 9 8 9 11 17 35 45 56 69 82 78 77 88 90 97 100 100
94 95 86 72 71 56 51 46 24 16 15 16 15 11 9 8 9 8 8 8 8 9 11 10 10 11 13 13 6 10 8 10 29 45 47 50 66 84 91 94 99 100 100 96
98 94 93 98 62 54 70 70 54 35 24 20 20 19 16 13 11 10 9 10 12 13 13 12 17 19 19 18 11 10 8 10 13 24 35 44 52 57 67 73 76 84 83 88
100 92 77 53 79 100 100 91 77 65 49 32 27 26 25 22 18 15 14 12 12 17 19 16 17 22 24 15 12 23 11 10 12 13 16 20 28 37 39 43 47 48 67 88
99 81 64 68 100 100 98 100 90 80 73 58 45 37 34 31 29 25 25 23 20 25 27 27 22 27 26 29 21 31 29 16 20 15 17 19 25 28 25 23 24 25 42 62
92 67 66 84 100 99 95 98 100 93 85 77 68 58 50 44 42 38 40 39 38 36 35 36 36 37 43 41 42 43 43 46 43 38 37 40 45 51 55 56 49 40 34 36
Wind_Speed
51 45 42 45 32 30 35 36 33 34 32 29 27 27 26 25 28 27 26 23 24 25 22 18 17 19 16 12 12 11 11 12 11 12 14 15 14 15 16 15 16 16 13 12
54 56 50 49 50 47 43 39 37 36 33 31 30 30 31 30 30 27 27 29 25 21 19 23 20 16 15 15 15 14 12 12 12 13 15 18 15 17 17 15 17 17 15 16
56 54 53 49 51 54 49 45 44 40 35 34 34 33 33 35 35 32 28 22 24 29 26 21 18 17 18 18 15 12 11 11 12 12 13 14 12 15 14 16 15 15 15 16
56 52 51 50 45 46 48 47 47 46 45 44 42 39 37 33 29 30 31 32 31 27 22 19 19 18 17 15 14 12 10 10 10 9 8 7 7 8 8 11 9 9 9 10
51 50 51 51 48 46 42 39 39 39 38 38 37 36 36 35 34 32 29 27 24 23 20 17 14 12 11 10 10 9 8 5 3 2 2 3 4 4 3 3 2 2 4 3
43 46 45 44 46 45 43 42 38 37 38 37 38 36 34 32 31 29 26 23 20 18 16 13 11 9 7 6 4 3 2 3 5 5 4 3 1 1 3 5 7 10 10 11
34 38 40 39 40 42 40 39 38 35 33 32 31 28 27 27 26 25 22 20 17 14 12 11 8 7 5 3 3 3 3 2 3 5 7 8 10 11 10 10 11 10 9 8
26 29 32 33 34 34 35 36 34 33 31 30 29 27 25 24 22 19 18 17 14 13 11 10 9 8 9 9 7 6 7 8 9 9 10 9 7 7 5 5 4 4 4 4
18 21 23 26 26 27 28 28 30 29 28 27 27 25 24 23 22 20 20 19 17 15 14 14 13 12 12 10 8 7 6 6 6 6 6 6 6 5 4 3 4 3 3 5
10 13 15 17 20 20 21 21 22 23 24 24 24 23 22 21 21 20 19 18 17 16 15 14 13 12 11 10 9 9 8 7 7 6 6 6 5 6 4 4 3 4 4 4
1 5 7 10 12 13 15 16 17 17 17 17 18 18 18 18 18 17 15 15 14 13 12 11 10 10 9 8 7 6 6 5 4 3 3 3 2 2 2 3 4 5 7 8
10 5 2 1 4 7 8 8 10 12 12 12 12 12 12 12 13 13 12 12 11 11 11 11 11 10 9 8 7 6 6 5 5 5 5 5 5 6 6 8 9 11 14 15
17 15 11 7 4 3 2 3 2 4 6 7 7 7 8 8 8 8 7 8 8 9 9 9 9 9 10 10 10 10 11 10 11 11 11 10 10 12 14 15 16 18 20 22
21 19 20 16 12 10 9 7 5 3 1 2 1 2 2 2 3 4 5 6 6 6 6 7 7 8 10 11 11 11 11 11 12 14 15 17 18 19 21 23 24 26 28 30
16 24 22 23 21 19 17 16 15 12 10 8 7 8 7 6 5 5 6 6 6 7 7 7 8 9 9 13 15 14 15 17 17 19 18 19 21 22 23 24 26 28 29 32
16 17 27 26 26 26 25 24 24 22 19 16 15 14 15 15 14 13 12 13 13 12 12 13 15 16 14 14 19 25 16 21 21 23 24 25 25 26 28 29 30 32 33 35
21 18 16 24 30 30 29 30 30 29 28 26 24 23 23 22 22 22 21 20 20 19 18 19 21 22 23 20 26 29 28 27 29 30 31 31 32 31 32 32 33 34 36 38
29 24 20 17 20 28 31 31 34 35 35 34 33 32 32 32 31 30 29 28 27 27 27 28 29 29 32 32 33 33 35 36 36 37 38 40 40 39 38 37 36 38 39 42
36 32 28 25 20 19 23 19 23 30 31 36 36 38 39 40 40 40 39 39 38 35 35 36 37 38 41 41 42 41 41 43 44 43 42 40 40 40 41 42 42 43 46 47
40 39 36 31 30 27 24 22 20 16 21 21 21 34 42 42 43 45 46 43 41 40 37 39 40 43 45 43 42 43 44 43 42 41 42 40 39 40 40 42 43 45 47 50
42 41 41 38 36 34 31 30 22 20 18 16 18 25 32 38 39 45 47 46 46 45 43 42 39 37 41 41 38 38 39 40 41 37 38 39 37 39 42 44 46 48 50 53
46 43 42 44 42 40 39 33 27 28 23 19 19 18 19 23 27 29 30 31 29 26 28 28 30 32 33 33 34 32 32 34 32 32 32 33 33 33 33 36 40 44 48 49
49 46 47 46 48 47 42 32 29 35 30 27 25 23 20 19 19 20 21 21 22 25 25 26 26 28 30 31 27 28 29 28 28 29 31 33 35 36 39 41 43 45 46 48
55 51 51 50 48 50 43 33 35 38 37 36 33 33 29 26 26 24 25 28 28 27 28 27 26 29 24 26 27 28 29 30 29 29 31 34 37 40 43 45 47 48 51 52
57 58 56 55 52 45 38 38 38 39 41 42 40 37 36 34 33 30 29 32 35 34 34 31 31 29 27 28 26 31 30 29 31 33 34 35 37 40 43 45 46 48 51 52
61 62 61 58 51 43 39 40 43 43 43 44 42 41 40 40 40 36 32 37 39 40 38 36 33 32 33 32 32 35 34 33 35 38 40 41 42 43 43 41 41 43 47 52
59 63 59 54 49 46 42 40 43 45 46 47 46 44 43 44 42 35 35 40 42 42 41 39 36 35 35 36 37 39 38 38 38 39 42 47 49 51 51 48 45 44 45 48
Wind_Direction
64 60 60 61 62 64 68 77 76 78 85 93 99 111 124 122 117 113 116 117 114 109 107 110 116 109 108 102 111 116 111 96 83 73 71 69 66 68 69 72 67 64 66 79
67 68 66 67 70 71 72 75 77 83 86 95 101 108 111 114 112 109 108 106 103 104 102 108 108 107 94 98 99 93 93 83 67 70 71 66 54 64 66 63 65 62 71 73
68 70 71 71 74 74 75 75 79 82 86 88 93 96 99 101 102 100 95 95 92 98 100 107 102 100 97 93 91 96 83 73 78 79 77 73 81 74 73 71 64 65 66 78
65 71 72 73 73 75 77 79 80 81 86 87 90 93 95 96 94 91 88 93 93 96 96 99 99 99 95 96 104 105 100 98 94 88 77 62 59 69 63 65 62 65 61 55
57 66 70 72 75 75 79 80 81 83 85 88 90 91 90 89 86 85 87 91 95 95 95 96 95 88 88 91 113 114 117 114 123 48 8 324 318 323 339 351 32 81 115 110
51 58 66 70 73 78 81 82 83 83 87 88 90 91 89 87 86 86 88 90 94 96 95 101 107 113 119 125 150 168 191 273 294 295 299 287 299 34 92 105 109 109 111 113
51 54 59 64 65 69 77 82 87 88 87 87 87 83 82 84 84 83 84 85 89 96 104 102 108 114 121 134 169 209 217 178 134 107 101 98 112 113 110 109 119 126 133 139
55 54 59 59 61 64 66 67 75 83 89 89 90 91 90 89 88 86 87 85 85 91 96 100 99 99 103 107 111 118 123 121 116 110 109 116 117 109 117 98 77 74 71 70
58 59 58 64 64 62 63 64 63 63 68 74 73 75 79 81 82 83 83 84 87 88 88 87 87 89 94 97 94 88 81 70 61 62 63 58 48 40 46 61 64 60 37 33
48 63 67 67 71 72 72 71 67 68 62 61 63 65 66 69 73 73 73 72 71 74 74 74 73 71 69 64 58 50 42 35 28 22 22 26 16 24 27 24 24 44 29 7
341 62 62 75 75 78 78 79 79 76 75 70 66 63 61 59 60 62 67 68 63 59 56 53 52 51 51 47 41 34 31 28 21 17 16 349 27 19 341 307 306 330 325 320
240 239 173 91 87 88 87 76 75 76 76 74 70 67 66 63 61 58 51 52 58 59 56 50 44 34 29 21 17 16 359 2 352 337 332 330 332 330 324 318 316 313 311 308
248 242 243 226 223 213 161 130 85 80 72 74 75 74 67 51 51 60 63 58 49 39 36 33 31 23 15 10 2 352 344 337 332 330 328 315 303 303 302 304 304 304 304 305
251 244 243 246 243 244 244 236 229 227 233 270 278 86 57 31 18 18 15 12 15 20 18 11 4 357 352 346 340 329 321 314 309 306 305 304 304 305 306 307 308 308 307 305
268 247 243 242 244 248 249 253 251 249 250 249 259 266 270 264 271 285 297 307 313 314 317 316 308 309 318 316 316 310 305 304 304 302 301 297 295 294 293 294 295 296 298 299
272 266 247 246 246 245 251 254 260 260 258 255 254 260 270 272 271 271 277 283 287 293 299 304 303 304 304 302 297 296 308 294 294 289 289 291 290 291 291 292 293 296 298 299
256 258 260 251 247 248 250 257 256 257 260 262 262 265 268 267 270 275 278 279 281 285 289 294 292 295 297 295 287 297 297 296 292 288 285 283 282 283 286 289 292 294 296 300
257 252 253 254 255 252 252 252 257 259 260 260 262 265 266 269 271 272 274 274 276 280 284 284 288 290 289 288 291 292 293 294 293 292 291 290 290 289 291 292 293 298 302 304
258 253 247 250 252 248 253 254 258 260 262 264 262 264 263 265 268 270 271 273 276 277 283 287 289 289 289 294 294 294 294 295 295 293 290 289 289 291 295 297 299 300 301 301
257 254 250 244 246 244 249 252 251 262 269 275 265 259 264 262 264 266 269 271 275 278 280 284 288 293 295 296 295 295 297 299 301 299 295 291 292 292 293 294 295 297 299 301
251 251 252 250 246 249 247 245 250 256 264 272 268 263 266 263 264 265 265 269 273 278 280 282 287 292 290 290 291 294 296 298 300 301 298 299 298 296 296 299 302 303 303 303
249 248 248 252 250 248 254 251 250 255 256 268 270 276 286 283 276 275 275 276 275 275 272 281 285 287 291 294 295 297 300 299 298 296 293 295 300 304 305 302 303 306 309 311
248 246 243 247 252 256 255 250 247 251 257 256 261 264 268 273 276 278 274 267 271 264 269 275 282 293 302 305 306 311 308 306 300 294 293 295 297 299 303 305 307 309 311 312
246 245 246 247 248 256 255 248 246 251 252 253 257 263 264 261 261 260 258 259 265 267 267 268 284 294 293 301 298 304 308 313 311 301 295 294 296 299 302 303 306 308 308 310
242 244 247 247 247 250 250 249 247 247 251 254 254 255 257 260 259 262 263 265 268 275 278 277 277 288 291 294 295 304 304 308 312 312 311 308 305 303 304 306 309 310 310 309
239 241 247 250 251 249 248 245 245 246 249 252 254 255 257 259 258 261 263 263 268 272 279 283 284 289 288 294 292 301 302 302 308 312 314 315 316 315 314 313 315 316 313 311
237 242 244 248 251 252 247 246 248 249 248 250 250 252 255 259 261 262 262 261 265 270 274 279 284 287 290 293 295 298 299 301 300 302 306 309 310 309 309 314 319 320 314 311